Tracking 19709 objects as of 18-Jun-2019
HD Live streaming from Space Station
objects crossing your sky now

THORAD DELTA 1 DEB

Track THORAD DELTA 1 DEB now!
10-day predictions


NORAD ID: 8174
Int'l Code: 1974-089AQ
Perigee: 1,409.0 km
Apogee: 1,509.1 km
Inclination: 101.6 °
Period: 114.9 minutes
Semi major axis: 7830 km
RCS: 0.0214 m2 (small)
Launch date: November 15, 1974
Source: United States (US)
Launch site: AIR FORCE WESTERN TEST RANGE (AFWTR)

Note: This is SATELLITE DEBRIS
aabbcc
Your satellite tracking list
Your tracking list is empty




NASA's NSSDC Master Catalog

Two Line Element Set (TLE):
1  8174U 74089AQ  19168.88798803 +.00000021 +00000-0 +40622-3 0  9994
2  8174 101.6219 139.0095 0063941 204.8980 213.6887 12.53010318038014
Source of the keplerian elements: AFSPC